Wind_Speed
7 4 8 16 14 8 6 5 6 2 6 5 4 11 15 13 10 10 9 10 11 12 12 22 28 27 27 26 24 27 22 22 20 16 15 12 12 10 6 8 13 9 8 7
2 7 15 7 9 12 9 10 11 4 8 6 5 7 10 14 13 15 15 14 14 11 10 14 22 28 30 30 25 24 26 25 22 19 15 13 12 9 7 6 13 14 10 9
5 14 7 5 6 9 7 8 6 8 6 8 8 2 5 6 6 9 11 14 14 14 15 13 18 26 30 30 29 22 23 27 23 24 15 10 9 10 9 9 9 13 16 13
7 10 6 5 6 3 4 8 10 15 6 5 3 3 4 6 9 12 13 12 13 14 13 14 21 23 26 34 33 27 24 22 23 23 18 15 14 11 12 11 12 10 14 16
10 7 7 8 5 4 6 7 9 7 6 6 3 4 5 7 9 12 15 15 15 15 17 17 22 30 33 33 34 34 29 25 24 24 20 17 17 16 14 13 12 10 13 15
12 4 3 8 7 6 7 7 11 7 4 3 7 6 4 5 11 11 12 16 17 15 15 16 26 28 28 29 32 35 34 32 27 24 23 22 22 20 18 16 14 14 15 15
8 8 5 4 5 2 5 7 2 1 1 5 0 2 7 10 8 12 18 19 16 15 14 13 13 18 22 26 30 34 34 37 35 32 30 28 25 24 23 20 19 19 17 19
3 8 3 4 8 6 2 6 5 3 3 3 1 5 6 3 5 6 5 9 9 13 12 13 15 20 21 23 30 33 34 36 36 35 34 34 31 28 27 27 23 22 21 21
6 7 5 4 1 7 1 1 4 7 3 3 3 6 7 7 6 2 3 6 10 9 13 14 15 21 20 23 26 32 35 36 35 36 36 35 35 33 31 29 28 26 23 22
4 3 1 5 4 3 5 6 3 3 4 2 4 4 7 6 5 6 5 5 7 8 11 10 11 20 20 22 25 28 30 32 30 29 32 32 31 31 32 32 31 31 30 27
7 4 10 1 2 5 2 2 6 5 4 5 3 6 6 8 7 8 9 8 8 8 6 8 9 18 18 13 18 30 30 30 30 30 33 32 32 30 32 34 34 32 30 27
8 5 4 9 1 2 3 3 5 5 3 2 4 5 1 7 9 8 8 6 5 3 1 3 7 8 11 11 15 30 32 33 32 31 31 31 31 30 33 36 34 32 27 27
9 2 1 7 7 3 5 2 6 5 4 4 5 6 2 3 5 6 5 7 4 3 5 7 1 6 13 13 12 25 30 33 30 30 30 32 31 30 32 32 30 29 26 24
9 4 6 6 7 4 3 5 3 5 4 5 6 5 3 7 7 4 6 4 6 2 6 6 8 7 14 8 12 18 20 21 22 23 28 29 28 27 25 25 24 22 22 22
4 3 3 4 7 2 3 4 6 5 5 6 6 8 9 11 9 6 1 3 2 5 6 8 6 6 12 15 19 18 16 15 14 14 12 9 11 13 14 14 14 17 15 10
4 1 1 1 3 4 4 7 6 6 5 4 6 5 7 7 7 4 5 5 3 4 7 7 7 6 13 18 21 26 27 26 23 22 20 16 15 13 12 9 7 5 1 2
3 4 3 3 4 1 4 6 4 4 4 9 6 10 4 5 12 12 9 8 7 5 7 9 10 11 17 23 25 28 26 21 21 20 18 15 12 11 10 8 7 8 8 7
2 3 3 3 3 1 7 6 5 6 4 8 2 6 13 5 5 7 9 11 9 8 10 7 9 13 21 25 26 26 22 19 18 17 16 13 10 9 7 6 6 6 6 6
4 4 3 4 3 5 3 5 5 6 4 8 7 5 7 8 6 1 8 12 14 9 10 13 17 23 26 28 26 25 20 18 16 14 13 10 8 8 7 8 8 9 10 9
5 5 4 2 3 6 8 5 6 3 2 8 8 9 12 9 5 6 12 12 9 14 22 23 24 26 30 29 27 24 20 16 13 11 10 8 9 10 10 11 10 10 16 19
3 2 4 1 3 7 7 15 4 5 8 5 8 11 12 9 5 7 14 8 11 19 25 26 23 23 28 26 23 22 17 13 10 9 9 9 9 9 10 9 12 16 11 13
6 5 4 2 4 5 18 8 5 6 10 8 6 12 16 7 8 16 16 17 17 17 23 29 26 12 24 22 21 20 16 11 9 8 8 8 7 6 7 13 13 13 13 16
3 4 3 4 4 4 4 1 5 7 8 7 6 10 18 12 8 16 17 18 16 22 22 29 28 27 23 20 19 19 14 11 10 8 7 5 4 5 6 12 11 13 14 15
7 4 2 2 4 5 4 6 10 15 14 19 10 12 15 11 17 17 17 17 16 21 21 21 25 24 21 17 15 16 15 12 12 13 14 15 13 11 9 12 10 12 11 11
3 6 4 5 4 9 4 7 8 14 18 22 18 12 20 19 17 18 17 18 17 23 23 26 22 22 22 20 17 16 15 15 18 17 13 11 9 9 11 13 9 9 8 7
2 1 2 4 6 3 8 10 7 9 12 16 15 8 8 17 21 17 17 21 26 25 25 23 26 29 27 22 19 16 14 17 19 15 12 10 9 8 9 12 13 9 9 11
Wind_Direction
163 162 214 233 215 234 264 281 260 118 125 91 134 151 178 172 166 166 178 181 187 197 201 188 189 195 197 200 205 204 196 200 201 207 215 216 216 220 248 242 229 235 246 240
20 245 249 173 198 220 235 236 259 52 145 96 173 162 180 182 190 182 182 189 196 188 184 192 196 199 206 203 205 204 205 205 209 220 215 216 228 220 247 265 257 243 247 244
180 253 335 295 241 209 211 194 186 160 114 58 125 48 187 202 195 195 207 197 194 186 184 190 190 199 205 199 206 198 190 201 213 212 209 212 213 229 237 265 281 258 252 245
230 274 208 246 270 203 289 190 145 142 113 174 164 251 221 201 199 196 207 203 203 195 190 188 191 196 202 208 208 200 193 187 197 201 211 219 223 229 240 262 272 280 255 247
252 311 324 311 241 201 250 149 140 141 101 109 141 83 256 185 205 206 207 210 209 204 196 188 193 196 201 207 206 205 200 188 199 200 210 217 228 234 239 263 267 268 246 246
265 281 256 224 263 194 124 59 33 41 75 2 204 147 265 197 217 214 209 217 211 206 205 201 200 198 200 202 210 210 207 203 202 210 216 224 232 234 241 248 254 251 237 243
324 276 250 182 293 4 84 86 93 40 347 229 105 94 239 221 215 219 201 208 206 203 190 198 193 200 200 196 203 211 214 215 217 218 221 225 232 234 238 239 245 252 233 232
174 315 210 181 188 180 50 134 149 177 183 234 205 222 247 223 261 276 286 176 172 197 194 189 192 193 202 206 201 209 219 221 223 222 227 228 235 238 243 242 244 246 240 248
175 275 303 247 175 133 128 245 178 107 71 73 288 299 296 202 267 266 196 130 158 174 177 181 180 189 193 203 211 213 217 227 230 232 229 231 235 239 245 248 246 248 249 258
220 290 219 297 72 21 146 158 66 17 136 195 283 280 236 250 194 138 149 219 182 185 159 167 168 177 192 209 220 221 226 227 231 237 235 238 237 246 248 251 251 252 253 257
154 129 281 357 92 197 347 57 67 112 115 154 164 260 230 197 137 142 192 200 205 214 212 172 162 158 173 194 223 229 223 223 226 229 239 237 240 246 254 254 256 255 256 258
202 145 233 240 197 217 288 115 116 114 225 86 146 274 315 188 157 162 176 218 269 17 163 157 178 206 242 229 236 217 219 222 227 228 230 234 239 248 255 261 258 255 256 261
172 191 14 352 355 346 81 30 92 110 95 199 134 265 3 229 196 154 234 170 205 255 229 232 66 5 342 336 217 193 210 222 225 232 233 238 244 246 249 253 257 258 261 263
89 133 142 178 209 180 245 154 157 118 109 169 225 277 208 238 235 208 177 221 147 258 293 32 34 19 12 82 154 176 191 213 222 227 231 235 239 243 251 253 256 261 263 266
98 130 162 233 252 234 257 238 172 163 174 147 229 196 251 199 202 222 300 49 25 345 78 73 70 48 67 93 121 131 138 154 169 169 182 210 237 240 242 248 255 255 253 259
349 148 305 327 338 250 276 276 220 186 133 58 129 245 235 121 120 139 156 160 228 21 85 126 104 106 104 92 98 111 122 118 120 112 100 100 104 108 105 112 114 122 121 355
26 121 78 270 312 5 332 246 186 130 151 146 152 220 164 151 173 191 183 179 183 182 161 159 147 136 114 119 123 113 111 117 112 109 104 98 97 95 88 87 83 69 58 50
119 81 91 204 30 105 247 306 223 145 182 209 228 177 189 168 91 140 174 176 177 176 164 152 123 129 127 128 120 120 124 119 112 104 100 96 91 83 80 77 64 52 39 33
138 126 95 138 159 281 309 268 181 149 247 198 208 132 125 113 88 146 177 178 180 170 161 144 156 145 137 133 134 129 121 114 111 103 96 87 78 84 82 64 56 57 59 54
49 62 119 103 164 189 239 288 325 79 232 216 175 157 141 128 147 229 181 167 166 153 151 155 155 142 143 145 141 129 120 115 105 101 97 86 82 86 72 71 67 66 87 90
20 10 163 164 200 284 358 305 290 140 237 212 176 159 157 177 198 143 151 149 144 152 157 141 145 150 148 144 135 117 116 109 109 108 102 95 97 87 69 63 93 106 81 76
165 166 193 133 165 239 355 350 49 304 293 282 171 175 183 148 132 138 143 142 148 149 140 135 126 149 146 142 132 122 115 113 114 109 108 108 104 85 79 112 104 90 82 79
60 164 201 164 196 286 318 305 291 313 292 296 243 187 175 153 144 151 147 145 148 150 147 142 141 158 149 150 132 119 120 125 122 128 129 134 129 121 131 143 114 96 90 77
346 28 59 86 230 332 276 1 9 0 348 333 267 180 166 151 140 144 146 144 151 152 144 141 139 137 143 134 125 128 133 134 131 122 123 128 126 117 121 141 126 103 94 75
247 336 313 292 327 331 265 10 352 350 355 353 343 194 174 150 155 154 156 155 157 148 145 147 144 145 147 140 137 139 145 148 138 133 130 131 132 135 133 139 112 95 87 67
230 120 44 278 289 228 280 303 325 353 350 351 342 334 200 171 158 161 161 160 156 152 149 148 152 151 148 148 147 150 156 158 148 135 131 133 129 127 147 139 104 91 91 97
Height
758 778 783 766 766 766 768 771 772 761 755 767 773 778 777 775 779 786 790 790 791 792 794 798 802 806 808 811 814 818 821 824 827 829 831 830 831 831 833 834 834 834 834 834
763 772 742 753 762 767 770 777 773 765 757 764 780 783 776 774 776 778 783 787 787 789 792 794 797 801 804 807 811 814 819 823 825 827 829 830 831 830 831 831 831 831 832 832
770 747 736 748 755 768 767 775 771 767 760 761 777 791 788 779 775 777 780 780 782 784 787 790 794 796 799 802 807 811 815 820 823 826 828 830 830 829 829 830 831 829 829 831
763 736 745 746 751 749 762 737 742 754 771 801 771 818 793 783 781 778 777 779 779 779 781 785 787 791 794 797 803 808 812 816 820 824 826 828 828 827 827 829 829 828 828 828
754 743 747 752 742 736 749 725 738 746 774 783 787 809 790 779 785 778 772 771 771 771 772 775 779 782 787 794 798 803 809 813 816 819 822 824 826 826 827 827 827 827 826 825
747 729 732 735 721 723 725 745 763 774 786 812 790 798 802 790 768 766 764 764 762 764 769 771 774 779 784 790 795 799 803 808 812 816 818 820 821 822 823 824 825 824 824 823
755 739 724 716 732 721 732 764 811 816 813 811 791 798 789 763 758 756 751 750 754 756 762 768 774 779 782 785 789 794 797 801 806 809 812 814 816 818 819 821 822 822 822 820
782 779 728 714 723 734 737 755 798 801 815 811 784 798 776 753 750 752 744 743 750 755 758 763 768 772 778 783 783 788 792 795 799 802 805 809 812 814 816 817 818 818 819 818
782 771 720 712 711 714 738 752 741 789 797 809 805 782 756 751 754 754 754 749 751 752 751 756 760 766 771 776 780 783 786 790 794 797 801 804 805 809 811 814 816 816 817 816
748 771 725 716 705 710 725 729 766 786 810 811 809 798 789 756 760 759 760 757 750 749 748 752 754 757 764 770 774 777 782 786 792 797 801 804 804 805 809 810 812 813 814 815
741 758 743 728 733 739 739 746 767 777 790 814 823 800 753 752 754 760 757 754 747 750 750 749 752 755 759 764 767 768 773 783 788 792 800 800 802 800 803 806 807 809 809 809
728 758 768 748 716 715 720 730 756 785 786 802 804 784 741 742 745 746 750 749 746 748 752 754 752 752 754 757 758 758 763 772 778 785 794 795 797 798 799 800 802 803 805 804
724 757 779 761 743 723 731 728 753 767 779 792 797 782 748 743 743 749 752 749 748 750 750 751 743 741 741 742 746 751 758 767 775 783 788 793 792 793 794 795 797 798 800 800
712 753 755 778 757 739 735 730 739 753 780 790 785 757 746 746 747 746 749 750 747 748 745 737 739 743 743 744 748 754 761 767 772 779 785 788 788 790 791 794 795 794 795 796
713 742 739 740 738 734 726 728 735 742 752 760 753 760 736 739 745 742 742 744 745 745 742 743 748 749 749 752 755 758 765 770 773 780 783 784 785 786 789 790 790 791 792 792
719 744 734 735 729 731 734 726 726 732 747 753 757 752 727 731 736 742 742 746 748 746 744 749 750 756 756 756 760 764 769 771 776 778 779 783 785 787 788 788 790 791 789 790
728 742 754 757 746 737 751 728 717 719 728 742 755 733 725 732 735 737 742 743 747 748 751 752 754 757 755 762 767 766 768 777 779 780 782 784 786 788 789 790 790 790 790 790
733 745 760 766 753 773 735 712 705 713 714 725 719 721 714 716 724 729 731 736 742 743 747 749 751 758 760 764 766 768 776 779 782 782 783 786 788 789 791 791 791 792 792 791
722 746 760 767 774 754 723 712 713 716 719 709 712 713 720 720 725 732 729 730 734 738 745 749 756 757 760 764 770 774 777 780 784 784 785 787 788 790 792 792 792 792 792 791
733 735 748 771 765 772 734 703 695 699 743 699 701 711 719 722 749 733 724 728 735 737 742 747 753 757 762 767 770 773 777 782 785 785 786 788 789 791 792 792 793 793 792 792
751 758 755 769 764 749 730 715 700 741 741 693 695 701 712 717 711 709 716 725 730 735 737 751 761 762 764 767 768 769 777 783 785 786 787 788 790 792 793 793 793 794 794 793
748 760 763 766 760 756 721 712 726 733 709 699 692 693 696 700 705 709 717 725 731 733 741 756 758 767 766 768 767 770 778 783 785 786 788 789 791 793 794 795 796 796 796 795
756 752 757 752 755 734 729 732 729 722 716 701 695 685 684 694 701 707 715 722 729 733 740 754 755 766 768 770 764 769 777 782 785 787 789 790 793 794 795 797 798 798 799 798
746 742 749 745 736 734 726 723 721 714 710 699 685 683 683 691 697 706 714 722 730 734 737 743 751 756 761 761 766 772 777 782 785 787 789 792 794 795 796 797 799 800 800 799
754 748 749 746 734 726 720 721 722 714 705 698 688 681 674 684 695 701 710 716 724 729 738 743 749 756 762 766 771 776 780 783 785 789 792 794 795 796 797 799 800 801 800 799
751 755 762 758 742 740 734 723 719 716 711 706 703 691 685 678 688 698 706 711 719 728 736 745 752 758 762 767 774 779 783 784 786 790 793 795 796 796 797 800 802 801 801 801